Year,Month,Day,Hour,Minute,Value (Times are PST for temperature in C)
2012,07,08,00,00,11.70
2012,07,08,00,01,11.70
2012,07,08,00,02,11.70
2012,07,08,00,03,11.60
2012,07,08,00,04,11.60
2012,07,08,00,05,11.60
2012,07,08,00,06,11.60
2012,07,08,00,07,11.60
2012,07,08,00,08,11.60
2012,07,08,00,09,11.60
2012,07,08,00,10,11.50
2012,07,08,00,11,11.50
2012,07,08,00,12,11.50
2012,07,08,00,13,11.50
2012,07,08,00,14,11.40
2012,07,08,00,15,11.40
2012,07,08,00,16,11.40
2012,07,08,00,17,11.40
2012,07,08,00,18,11.40
2012,07,08,00,19,11.40
2012,07,08,00,20,11.40
2012,07,08,00,21,11.40
2012,07,08,00,22,11.30
2012,07,08,00,23,11.30
2012,07,08,00,24,11.30
2012,07,08,00,25,11.30
2012,07,08,00,26,11.30
2012,07,08,00,27,11.30
2012,07,08,00,28,11.30
2012,07,08,00,29,11.30
2012,07,08,00,30,11.30
2012,07,08,00,31,11.30
2012,07,08,00,32,11.30
2012,07,08,00,33,11.20
2012,07,08,00,34,11.20
2012,07,08,00,35,11.20
2012,07,08,00,36,11.20
2012,07,08,00,37,11.20
2012,07,08,00,38,11.20
2012,07,08,00,39,11.20
2012,07,08,00,40,11.20
2012,07,08,00,41,11.20
2012,07,08,00,42,11.20
2012,07,08,00,43,11.20
2012,07,08,00,44,11.20
2012,07,08,00,45,11.20
2012,07,08,00,46,11.30
2012,07,08,00,47,11.30
2012,07,08,00,48,11.20
2012,07,08,00,49,11.30
2012,07,08,00,50,11.30
2012,07,08,00,51,11.30
2012,07,08,00,52,11.30
2012,07,08,00,53,11.20
2012,07,08,00,54,11.20
2012,07,08,00,55,11.20
2012,07,08,00,56,11.20
2012,07,08,00,57,11.20
2012,07,08,00,58,11.20
2012,07,08,00,59,11.20
2012,07,08,01,00,11.20
2012,07,08,01,01,11.20
2012,07,08,01,02,11.20
2012,07,08,01,03,11.20
2012,07,08,01,04,11.20
2012,07,08,01,05,11.20
2012,07,08,01,06,11.20
2012,07,08,01,07,11.20
2012,07,08,01,08,11.20
2012,07,08,01,09,11.20
2012,07,08,01,10,11.20
2012,07,08,01,11,11.20
2012,07,08,01,12,11.20
2012,07,08,01,13,11.20
2012,07,08,01,14,11.20
2012,07,08,01,15,11.20
2012,07,08,01,16,11.20
2012,07,08,01,17,11.20
2012,07,08,01,18,11.10
2012,07,08,01,19,11.10
2012,07,08,01,20,11.10
2012,07,08,01,21,11.10
2012,07,08,01,22,11.10
2012,07,08,01,23,11.10
2012,07,08,01,24,11.10
2012,07,08,01,25,11.10
2012,07,08,01,26,11.10
2012,07,08,01,27,11.10
2012,07,08,01,28,11.10
2012,07,08,01,29,11.10
2012,07,08,01,30,11.10
2012,07,08,01,31,11.10
2012,07,08,01,32,11.00
2012,07,08,01,33,11.00
2012,07,08,01,34,11.00
2012,07,08,01,35,11.00
2012,07,08,01,36,11.00
2012,07,08,01,37,11.00
2012,07,08,01,38,10.90
2012,07,08,01,39,11.00
2012,07,08,01,40,10.90
2012,07,08,01,41,10.90
2012,07,08,01,42,10.90
2012,07,08,01,43,10.90
2012,07,08,01,44,10.90
2012,07,08,01,45,10.90
2012,07,08,01,46,10.90
2012,07,08,01,47,10.90
2012,07,08,01,48,10.90
2012,07,08,01,49,10.90
2012,07,08,01,50,10.90
2012,07,08,01,51,10.90
2012,07,08,01,52,10.90
2012,07,08,01,53,10.90
2012,07,08,01,54,10.80
2012,07,08,01,55,10.80
2012,07,08,01,56,10.80
2012,07,08,01,57,10.80
2012,07,08,01,58,10.80
2012,07,08,01,59,10.80
2012,07,08,02,00,10.80
2012,07,08,02,01,10.80
2012,07,08,02,02,10.80
2012,07,08,02,03,10.80
2012,07,08,02,04,10.80
2012,07,08,02,05,10.80
2012,07,08,02,06,10.80
2012,07,08,02,07,10.80
2012,07,08,02,08,10.80
2012,07,08,02,09,10.80
2012,07,08,02,10,10.80
2012,07,08,02,11,10.80
2012,07,08,02,12,10.80
2012,07,08,02,13,10.80
2012,07,08,02,14,10.80
2012,07,08,02,15,10.80
2012,07,08,02,16,10.80
2012,07,08,02,17,10.70
2012,07,08,02,18,10.70
2012,07,08,02,19,10.70
2012,07,08,02,20,10.70
2012,07,08,02,21,10.70
2012,07,08,02,22,10.70
2012,07,08,02,23,10.70
2012,07,08,02,24,10.70
2012,07,08,02,25,10.70
2012,07,08,02,26,10.70
2012,07,08,02,27,10.60
2012,07,08,02,28,10.60
2012,07,08,02,29,10.60
2012,07,08,02,30,10.60
2012,07,08,02,31,10.60
2012,07,08,02,32,10.60
2012,07,08,02,33,10.60
2012,07,08,02,34,10.60
2012,07,08,02,35,10.60
2012,07,08,02,36,10.60
2012,07,08,02,37,10.50
2012,07,08,02,38,10.50
2012,07,08,02,39,10.50
2012,07,08,02,40,10.50
2012,07,08,02,41,10.50
2012,07,08,02,42,10.50
2012,07,08,02,43,10.50
2012,07,08,02,44,10.50
2012,07,08,02,45,10.50
2012,07,08,02,46,10.50
2012,07,08,02,47,10.50
2012,07,08,02,48,10.50
2012,07,08,02,49,10.50
2012,07,08,02,50,10.50
2012,07,08,02,51,10.50
2012,07,08,02,52,10.50
2012,07,08,02,53,10.50
2012,07,08,02,54,10.50
2012,07,08,02,55,10.50
2012,07,08,02,56,10.40
2012,07,08,02,57,10.40
2012,07,08,02,58,10.40
2012,07,08,02,59,10.40
2012,07,08,03,00,10.40
2012,07,08,03,01,10.40
2012,07,08,03,02,10.40
2012,07,08,03,03,10.40
2012,07,08,03,04,10.40
2012,07,08,03,05,10.40
2012,07,08,03,06,10.40
2012,07,08,03,07,10.40
2012,07,08,03,08,10.40
2012,07,08,03,09,10.30
2012,07,08,03,10,10.30
2012,07,08,03,11,10.30
2012,07,08,03,12,10.30
2012,07,08,03,13,10.30
2012,07,08,03,14,10.30
2012,07,08,03,15,10.30
2012,07,08,03,16,10.30
2012,07,08,03,17,10.30
2012,07,08,03,18,10.30
2012,07,08,03,19,10.30
2012,07,08,03,20,10.30
2012,07,08,03,21,10.30
2012,07,08,03,22,10.30
2012,07,08,03,23,10.20
2012,07,08,03,24,10.20
2012,07,08,03,25,10.20
2012,07,08,03,26,10.20
2012,07,08,03,27,10.20
2012,07,08,03,28,10.20
2012,07,08,03,29,10.20
2012,07,08,03,30,10.20
2012,07,08,03,31,10.20
2012,07,08,03,32,10.20
2012,07,08,03,33,10.20
2012,07,08,03,34,10.20
2012,07,08,03,35,10.20
2012,07,08,03,36,10.20
2012,07,08,03,37,10.10
2012,07,08,03,38,10.10
2012,07,08,03,39,10.10
2012,07,08,03,40,10.10
2012,07,08,03,41,10.10
2012,07,08,03,42,10.10
2012,07,08,03,43,10.10
2012,07,08,03,44,10.10
2012,07,08,03,45,10.10
2012,07,08,03,46,10.10
2012,07,08,03,47,10.10
2012,07,08,03,48,10.10
2012,07,08,03,49,10.10
2012,07,08,03,50,10.10
2012,07,08,03,51,10.10
2012,07,08,03,52,10.10
2012,07,08,03,53,10.10
2012,07,08,03,54,10.10
2012,07,08,03,55,10.10
2012,07,08,03,56,10.10
2012,07,08,03,57,10.10
2012,07,08,03,58,10.10
2012,07,08,03,59,10.10
2012,07,08,04,00,10.10
2012,07,08,04,01,10.10
2012,07,08,04,02,10.10
2012,07,08,04,03,10.10
2012,07,08,04,04,10.10
2012,07,08,04,05,10.10
2012,07,08,04,06,10.10
2012,07,08,04,07,10.10
2012,07,08,04,08,10.10
2012,07,08,04,09,10.10
2012,07,08,04,10,10.10
2012,07,08,04,11,10.00
2012,07,08,04,12,10.00
2012,07,08,04,13,10.00
2012,07,08,04,14,10.00
2012,07,08,04,15,10.00
2012,07,08,04,16,10.00
2012,07,08,04,17,10.00
2012,07,08,04,18,10.00
2012,07,08,04,19,10.00
2012,07,08,04,20,10.00
2012,07,08,04,21,10.00
2012,07,08,04,22,9.90
2012,07,08,04,23,9.90
2012,07,08,04,24,9.90
2012,07,08,04,25,9.90
2012,07,08,04,26,9.90
2012,07,08,04,27,9.90
2012,07,08,04,28,9.90
2012,07,08,04,29,9.90
2012,07,08,04,30,9.90
2012,07,08,04,31,9.90
2012,07,08,04,32,9.90
2012,07,08,04,33,9.90
2012,07,08,04,34,9.90
2012,07,08,04,35,9.90
2012,07,08,04,36,9.80
2012,07,08,04,37,9.80
2012,07,08,04,38,9.80
2012,07,08,04,39,9.80
2012,07,08,04,40,9.80
2012,07,08,04,41,9.80
2012,07,08,04,42,9.80
2012,07,08,04,43,9.80
2012,07,08,04,44,9.80
2012,07,08,04,45,9.80
2012,07,08,04,46,9.80
2012,07,08,04,47,9.80
2012,07,08,04,48,9.80
2012,07,08,04,49,9.80
2012,07,08,04,50,9.70
2012,07,08,04,51,9.70
2012,07,08,04,52,9.70
2012,07,08,04,53,9.80
2012,07,08,04,54,9.70
2012,07,08,04,55,9.70
2012,07,08,04,56,9.70
2012,07,08,04,57,9.70
2012,07,08,04,58,9.70
2012,07,08,04,59,9.70
2012,07,08,05,00,9.70
2012,07,08,05,01,9.70
2012,07,08,05,02,9.70
2012,07,08,05,03,9.70
2012,07,08,05,04,9.70
2012,07,08,05,05,9.70
2012,07,08,05,06,9.70
2012,07,08,05,07,9.70
2012,07,08,05,08,9.70
2012,07,08,05,09,9.70
2012,07,08,05,10,9.70
2012,07,08,05,11,9.70
2012,07,08,05,12,9.80
2012,07,08,05,13,9.80
2012,07,08,05,14,9.80
2012,07,08,05,15,9.80
2012,07,08,05,16,9.80
2012,07,08,05,17,9.80
2012,07,08,05,18,9.80
2012,07,08,05,19,9.80
2012,07,08,05,20,9.80
2012,07,08,05,21,9.80
2012,07,08,05,22,9.80
2012,07,08,05,23,9.80
2012,07,08,05,24,9.80
2012,07,08,05,25,9.80
2012,07,08,05,26,9.90
2012,07,08,05,27,9.90
2012,07,08,05,28,9.90
2012,07,08,05,29,10.00
2012,07,08,05,30,10.00
2012,07,08,05,31,10.00
2012,07,08,05,32,10.00
2012,07,08,05,33,10.00
2012,07,08,05,34,10.00
2012,07,08,05,35,10.00
2012,07,08,05,36,10.00
2012,07,08,05,37,10.10
2012,07,08,05,38,10.10
2012,07,08,05,39,10.10
2012,07,08,05,40,10.10
2012,07,08,05,41,10.10
2012,07,08,05,42,10.00
2012,07,08,05,43,10.00
2012,07,08,05,44,10.00
2012,07,08,05,45,10.00
2012,07,08,05,46,10.00
2012,07,08,05,47,10.00
2012,07,08,05,48,10.00
2012,07,08,05,49,10.00
2012,07,08,05,50,10.00
2012,07,08,05,51,9.90
2012,07,08,05,52,9.90
2012,07,08,05,53,9.90
2012,07,08,05,54,9.90
2012,07,08,05,55,9.90
2012,07,08,05,56,9.90
2012,07,08,05,57,9.90
2012,07,08,05,58,9.90
2012,07,08,05,59,9.80
2012,07,08,06,00,9.80
2012,07,08,06,01,9.80
2012,07,08,06,02,9.80
2012,07,08,06,03,9.80
2012,07,08,06,04,9.80
2012,07,08,06,05,9.80
2012,07,08,06,06,9.80
2012,07,08,06,07,9.80
2012,07,08,06,08,9.80
2012,07,08,06,09,9.80
2012,07,08,06,10,9.80
2012,07,08,06,11,9.80
2012,07,08,06,12,9.80
2012,07,08,06,13,9.80
2012,07,08,06,14,9.80
2012,07,08,06,15,9.80
2012,07,08,06,16,9.80
2012,07,08,06,17,9.80
2012,07,08,06,18,9.80
2012,07,08,06,19,9.80
2012,07,08,06,20,9.80
2012,07,08,06,21,9.80
2012,07,08,06,22,9.80
2012,07,08,06,23,9.80
2012,07,08,06,24,9.80
2012,07,08,06,25,9.80
2012,07,08,06,26,9.80
2012,07,08,06,27,9.80
2012,07,08,06,28,9.80
2012,07,08,06,29,9.80
2012,07,08,06,30,9.80
2012,07,08,06,31,9.80
2012,07,08,06,32,9.80
2012,07,08,06,33,9.80
2012,07,08,06,34,9.80
2012,07,08,06,35,9.80
2012,07,08,06,36,9.80
2012,07,08,06,37,9.80
2012,07,08,06,38,9.90
2012,07,08,06,39,9.90
2012,07,08,06,40,9.90
2012,07,08,06,41,9.90
2012,07,08,06,42,9.90
2012,07,08,06,43,9.90
2012,07,08,06,44,9.90
2012,07,08,06,45,9.90
2012,07,08,06,46,9.90
2012,07,08,06,47,9.90
2012,07,08,06,48,9.90
2012,07,08,06,49,9.90
2012,07,08,06,50,9.90
2012,07,08,06,51,9.90
2012,07,08,06,52,10.00
2012,07,08,06,53,10.00
2012,07,08,06,54,10.00
2012,07,08,06,55,10.10
2012,07,08,06,56,10.10
2012,07,08,06,57,10.10
2012,07,08,06,58,10.10
2012,07,08,06,59,10.10
2012,07,08,07,00,10.10
2012,07,08,07,01,10.10
2012,07,08,07,02,10.20
2012,07,08,07,03,10.20
2012,07,08,07,04,10.20
2012,07,08,07,05,10.20
2012,07,08,07,06,10.30
2012,07,08,07,07,10.30
2012,07,08,07,08,10.30
2012,07,08,07,09,10.30
2012,07,08,07,10,10.40
2012,07,08,07,11,10.40
2012,07,08,07,12,10.50
2012,07,08,07,13,10.50
2012,07,08,07,14,10.60
2012,07,08,07,15,10.60
2012,07,08,07,16,10.60
2012,07,08,07,17,10.70
2012,07,08,07,18,10.70
2012,07,08,07,19,10.70
2012,07,08,07,20,10.70
2012,07,08,07,21,10.70
2012,07,08,07,22,10.80
2012,07,08,07,23,10.80
2012,07,08,07,24,10.80
2012,07,08,07,25,10.90
2012,07,08,07,26,10.90
2012,07,08,07,27,10.90
2012,07,08,07,28,10.90
2012,07,08,07,29,10.90
2012,07,08,07,30,10.90
2012,07,08,07,31,11.00
2012,07,08,07,32,11.00
2012,07,08,07,33,11.10
2012,07,08,07,34,11.10
2012,07,08,07,35,11.10
2012,07,08,07,36,11.20
2012,07,08,07,37,11.20
2012,07,08,07,38,11.30
2012,07,08,07,39,11.30
2012,07,08,07,40,11.30
2012,07,08,07,41,11.30
2012,07,08,07,42,11.40
2012,07,08,07,43,11.40
2012,07,08,07,44,11.40
2012,07,08,07,45,11.40
2012,07,08,07,46,11.40
2012,07,08,07,47,11.40
2012,07,08,07,48,11.40
2012,07,08,07,49,11.40
2012,07,08,07,50,11.50
2012,07,08,07,51,11.50
2012,07,08,07,52,11.50
2012,07,08,07,53,11.50
2012,07,08,07,54,11.50
2012,07,08,07,55,11.60
2012,07,08,07,56,11.60
2012,07,08,07,57,11.60
2012,07,08,07,58,11.60
2012,07,08,07,59,11.60
2012,07,08,08,00,11.60
2012,07,08,08,01,11.70
2012,07,08,08,02,11.70
2012,07,08,08,03,11.70
2012,07,08,08,04,11.80
2012,07,08,08,05,11.80
2012,07,08,08,06,11.80
2012,07,08,08,07,11.90
2012,07,08,08,08,11.90
2012,07,08,08,09,11.90
2012,07,08,08,10,12.00
2012,07,08,08,11,12.00
2012,07,08,08,12,12.00
2012,07,08,08,13,11.90
2012,07,08,08,14,11.90
2012,07,08,08,15,11.90
2012,07,08,08,16,11.90
2012,07,08,08,17,11.80
2012,07,08,08,18,11.80
2012,07,08,08,19,11.80
2012,07,08,08,20,11.80
2012,07,08,08,21,11.80
2012,07,08,08,22,11.90
2012,07,08,08,23,11.90
2012,07,08,08,24,11.90
2012,07,08,08,25,11.90
2012,07,08,08,26,11.90
2012,07,08,08,27,12.00
2012,07,08,08,28,12.00
2012,07,08,08,29,12.00
2012,07,08,08,30,12.00
2012,07,08,08,31,12.00
2012,07,08,08,32,12.00
2012,07,08,08,33,12.10
2012,07,08,08,34,12.10
2012,07,08,08,35,12.10
2012,07,08,08,36,12.10
2012,07,08,08,37,12.10
2012,07,08,08,38,12.10
2012,07,08,08,39,12.10
2012,07,08,08,40,12.20
2012,07,08,08,41,12.20
2012,07,08,08,42,12.20
2012,07,08,08,43,12.20
2012,07,08,08,44,12.20
2012,07,08,08,45,12.20
2012,07,08,08,46,12.20
2012,07,08,08,47,12.20
2012,07,08,08,48,12.20
2012,07,08,08,49,12.20
2012,07,08,08,50,12.20
2012,07,08,08,51,12.20
2012,07,08,08,52,12.20
2012,07,08,08,53,12.20
2012,07,08,08,54,12.20
2012,07,08,08,55,12.20
2012,07,08,08,56,12.20
2012,07,08,08,57,12.20
2012,07,08,08,58,12.20
2012,07,08,08,59,12.20
2012,07,08,09,00,12.20
2012,07,08,09,01,12.20
2012,07,08,09,02,12.20
2012,07,08,09,03,12.30
2012,07,08,09,04,12.30
2012,07,08,09,05,12.30
2012,07,08,09,06,12.30
2012,07,08,09,07,12.30
2012,07,08,09,08,12.30
2012,07,08,09,09,12.40
2012,07,08,09,10,12.40
2012,07,08,09,11,12.40
2012,07,08,09,12,12.40
2012,07,08,09,13,12.50
2012,07,08,09,14,12.60
2012,07,08,09,15,12.60
2012,07,08,09,16,12.70
2012,07,08,09,17,12.70
2012,07,08,09,18,12.80
2012,07,08,09,19,12.80
2012,07,08,09,20,12.80
2012,07,08,09,21,12.80
2012,07,08,09,22,12.90
2012,07,08,09,23,12.90
2012,07,08,09,24,12.90
2012,07,08,09,25,12.90
2012,07,08,09,26,13.00
2012,07,08,09,27,12.90
2012,07,08,09,28,13.00
2012,07,08,09,29,12.90
2012,07,08,09,30,12.90
2012,07,08,09,31,12.90
2012,07,08,09,32,12.90
2012,07,08,09,33,12.90
2012,07,08,09,34,13.00
2012,07,08,09,35,13.00
2012,07,08,09,36,13.00
2012,07,08,09,37,13.10
2012,07,08,09,38,13.10
2012,07,08,09,39,13.20
2012,07,08,09,40,13.20
2012,07,08,09,41,13.20
2012,07,08,09,42,13.20
2012,07,08,09,43,13.30
2012,07,08,09,44,13.30
2012,07,08,09,45,13.30
2012,07,08,09,46,13.30
2012,07,08,09,47,13.30
2012,07,08,09,48,13.30
2012,07,08,09,49,13.40
2012,07,08,09,50,13.30
2012,07,08,09,51,13.30
2012,07,08,09,52,13.30
2012,07,08,09,53,13.30
2012,07,08,09,54,13.30
2012,07,08,09,55,13.30
2012,07,08,09,56,13.40
2012,07,08,09,57,13.40
2012,07,08,09,58,13.50
2012,07,08,09,59,13.60
2012,07,08,10,00,13.60
2012,07,08,10,01,13.70
2012,07,08,10,02,13.70
2012,07,08,10,03,13.70
2012,07,08,10,04,13.70
2012,07,08,10,05,13.70
2012,07,08,10,06,13.70
2012,07,08,10,07,13.70
2012,07,08,10,08,13.70
2012,07,08,10,09,13.80
2012,07,08,10,10,13.90
2012,07,08,10,11,13.90
2012,07,08,10,12,14.00
2012,07,08,10,13,14.00
2012,07,08,10,14,13.90
2012,07,08,10,15,13.90
2012,07,08,10,16,14.00
2012,07,08,10,17,14.00
2012,07,08,10,18,14.00
2012,07,08,10,19,14.10
2012,07,08,10,20,14.10
2012,07,08,10,21,14.20
2012,07,08,10,22,14.20
2012,07,08,10,23,14.20
2012,07,08,10,24,14.20
2012,07,08,10,25,14.20
2012,07,08,10,26,14.30
2012,07,08,10,27,14.30
2012,07,08,10,28,14.30
2012,07,08,10,29,14.30
2012,07,08,10,30,14.30
2012,07,08,10,31,14.40
2012,07,08,10,32,14.50
2012,07,08,10,33,14.50
2012,07,08,10,34,14.50
2012,07,08,10,35,14.50
2012,07,08,10,36,14.40
2012,07,08,10,37,14.40
2012,07,08,10,38,14.40
2012,07,08,10,39,14.40
2012,07,08,10,40,14.40
2012,07,08,10,41,14.40
2012,07,08,10,42,14.40
2012,07,08,10,43,14.40
2012,07,08,10,44,14.40
2012,07,08,10,45,14.30
2012,07,08,10,46,14.30
2012,07,08,10,47,14.20
2012,07,08,10,48,14.20
2012,07,08,10,49,14.20
2012,07,08,10,50,14.20
2012,07,08,10,51,14.20
2012,07,08,10,52,14.10
2012,07,08,10,53,14.10
2012,07,08,10,54,14.10
2012,07,08,10,55,14.10
2012,07,08,10,56,14.00
2012,07,08,10,57,13.90
2012,07,08,10,58,13.80
2012,07,08,10,59,13.70
2012,07,08,11,00,13.70
2012,07,08,11,01,13.60
2012,07,08,11,02,13.50
2012,07,08,11,03,13.50
2012,07,08,11,04,13.50
2012,07,08,11,05,13.60
2012,07,08,11,06,13.60
2012,07,08,11,07,13.60
2012,07,08,11,08,13.60
2012,07,08,11,09,13.60
2012,07,08,11,10,13.60
2012,07,08,11,11,13.60
2012,07,08,11,12,13.70
2012,07,08,11,13,13.70
2012,07,08,11,14,13.70
2012,07,08,11,15,13.70
2012,07,08,11,16,13.70
2012,07,08,11,17,13.70
2012,07,08,11,18,13.70
2012,07,08,11,19,13.90
2012,07,08,11,20,14.00
2012,07,08,11,21,14.00
2012,07,08,11,22,14.00
2012,07,08,11,23,14.00
2012,07,08,11,24,14.00
2012,07,08,11,25,14.10
2012,07,08,11,26,14.20
2012,07,08,11,27,14.20
2012,07,08,11,28,14.30
2012,07,08,11,29,14.30
2012,07,08,11,30,14.20
2012,07,08,11,31,14.20
2012,07,08,11,32,14.30
2012,07,08,11,33,14.30
2012,07,08,11,34,14.30
2012,07,08,11,35,14.30
2012,07,08,11,36,14.40
2012,07,08,11,37,14.40
2012,07,08,11,38,14.40
2012,07,08,11,39,14.40
2012,07,08,11,40,14.40
2012,07,08,11,41,14.40
2012,07,08,11,42,14.40
2012,07,08,11,43,14.40
2012,07,08,11,44,14.30
2012,07,08,11,45,14.30
2012,07,08,11,46,14.20
2012,07,08,11,47,14.20
2012,07,08,11,48,14.20
2012,07,08,11,49,14.10
2012,07,08,11,50,14.20
2012,07,08,11,51,14.20
2012,07,08,11,52,14.20
2012,07,08,11,53,14.30
2012,07,08,11,54,14.30
2012,07,08,11,55,14.30
2012,07,08,11,56,14.40
2012,07,08,11,57,14.50
2012,07,08,11,58,14.60
2012,07,08,11,59,14.70
2012,07,08,12,00,14.70
2012,07,08,12,01,14.80
2012,07,08,12,02,14.80
2012,07,08,12,03,14.90
2012,07,08,12,04,14.90
2012,07,08,12,05,14.90
2012,07,08,12,06,14.90
2012,07,08,12,07,14.90
2012,07,08,12,08,15.00
2012,07,08,12,09,15.10
2012,07,08,12,10,15.20
2012,07,08,12,11,15.20
2012,07,08,12,12,15.30
2012,07,08,12,13,15.30
2012,07,08,12,14,15.30
2012,07,08,12,15,15.20
2012,07,08,12,16,15.20
2012,07,08,12,17,15.10
2012,07,08,12,18,15.10
2012,07,08,12,19,15.00
2012,07,08,12,20,15.00
2012,07,08,12,21,15.00
2012,07,08,12,22,15.00
2012,07,08,12,23,15.10
2012,07,08,12,24,15.10
2012,07,08,12,25,15.20
2012,07,08,12,26,15.20
2012,07,08,12,27,15.30
2012,07,08,12,28,15.30
2012,07,08,12,29,15.40
2012,07,08,12,30,15.40
2012,07,08,12,31,15.50
2012,07,08,12,32,15.50
2012,07,08,12,33,15.50
2012,07,08,12,34,15.50
2012,07,08,12,35,15.60
2012,07,08,12,36,15.60
2012,07,08,12,37,15.60
2012,07,08,12,38,15.60
2012,07,08,12,39,15.60
2012,07,08,12,40,15.70
2012,07,08,12,41,15.60
2012,07,08,12,42,15.60
2012,07,08,12,43,15.60
2012,07,08,12,44,15.60
2012,07,08,12,45,15.70
2012,07,08,12,46,15.80
2012,07,08,12,47,15.90
2012,07,08,12,48,16.00
2012,07,08,12,49,16.00
2012,07,08,12,50,16.00
2012,07,08,12,51,16.00
2012,07,08,12,52,16.00
2012,07,08,12,53,16.10
2012,07,08,12,54,16.10
2012,07,08,12,55,16.20
2012,07,08,12,56,16.30
2012,07,08,12,57,16.40
2012,07,08,12,58,16.40
2012,07,08,12,59,16.40
2012,07,08,13,00,16.50
2012,07,08,13,01,16.50
2012,07,08,13,02,16.50
2012,07,08,13,03,16.40
2012,07,08,13,04,16.30
2012,07,08,13,05,16.30
2012,07,08,13,06,16.20
2012,07,08,13,07,16.20
2012,07,08,13,08,16.30
2012,07,08,13,09,16.20
2012,07,08,13,10,16.30
2012,07,08,13,11,16.30
2012,07,08,13,12,16.30
2012,07,08,13,13,16.30
2012,07,08,13,14,16.40
2012,07,08,13,15,16.40
2012,07,08,13,16,16.40
2012,07,08,13,17,16.40
2012,07,08,13,18,16.30
2012,07,08,13,19,16.30
2012,07,08,13,20,16.30
2012,07,08,13,21,16.40
2012,07,08,13,22,16.40
2012,07,08,13,23,16.40
2012,07,08,13,24,16.50
2012,07,08,13,25,16.50
2012,07,08,13,26,16.50
2012,07,08,13,27,16.60
2012,07,08,13,28,16.60
2012,07,08,13,29,16.50
2012,07,08,13,30,16.50
2012,07,08,13,31,16.40
2012,07,08,13,32,16.30
2012,07,08,13,33,16.30
2012,07,08,13,34,16.30
2012,07,08,13,35,16.30
2012,07,08,13,36,16.30
2012,07,08,13,37,16.20
2012,07,08,13,38,16.10
2012,07,08,13,39,16.10
2012,07,08,13,40,16.00
2012,07,08,13,41,16.10
2012,07,08,13,42,16.10
2012,07,08,13,43,16.10
2012,07,08,13,44,16.10
2012,07,08,13,45,16.20
2012,07,08,13,46,16.20
2012,07,08,13,47,16.20
2012,07,08,13,48,16.30
2012,07,08,13,49,16.20
2012,07,08,13,50,16.20
2012,07,08,13,51,16.20
2012,07,08,13,52,16.20
2012,07,08,13,53,16.30
2012,07,08,13,54,16.20
2012,07,08,13,55,16.20
2012,07,08,13,56,16.10
2012,07,08,13,57,16.00
2012,07,08,13,58,16.00
2012,07,08,13,59,16.00
2012,07,08,14,00,16.00
2012,07,08,14,01,16.10
2012,07,08,14,02,16.00
2012,07,08,14,03,16.00
2012,07,08,14,04,16.00
2012,07,08,14,05,16.10
2012,07,08,14,06,16.10
2012,07,08,14,07,16.10
2012,07,08,14,08,16.10
2012,07,08,14,09,16.10
2012,07,08,14,10,16.10
2012,07,08,14,11,16.00
2012,07,08,14,12,16.00
2012,07,08,14,13,16.00
2012,07,08,14,14,16.00
2012,07,08,14,15,16.00
2012,07,08,14,16,16.00
2012,07,08,14,17,16.00
2012,07,08,14,18,16.00
2012,07,08,14,19,16.10
2012,07,08,14,20,16.10
2012,07,08,14,21,16.10
2012,07,08,14,22,16.20
2012,07,08,14,23,16.20
2012,07,08,14,24,16.30
2012,07,08,14,25,16.30
2012,07,08,14,26,16.30
2012,07,08,14,27,16.40
2012,07,08,14,28,16.40
2012,07,08,14,29,16.50
2012,07,08,14,30,16.50
2012,07,08,14,31,16.50
2012,07,08,14,32,16.40
2012,07,08,14,33,16.30
2012,07,08,14,34,16.20
2012,07,08,14,35,16.20
2012,07,08,14,36,16.10
2012,07,08,14,37,16.10
2012,07,08,14,38,16.10
2012,07,08,14,39,16.10
2012,07,08,14,40,16.10
2012,07,08,14,41,16.10
2012,07,08,14,42,16.10
2012,07,08,14,43,16.00
2012,07,08,14,44,16.00
2012,07,08,14,45,16.00
2012,07,08,14,46,16.00
2012,07,08,14,47,16.00
2012,07,08,14,48,16.10
2012,07,08,14,49,16.10
2012,07,08,14,50,16.20
2012,07,08,14,51,16.20
2012,07,08,14,52,16.20
2012,07,08,14,53,16.10
2012,07,08,14,54,16.10
2012,07,08,14,55,16.10
2012,07,08,14,56,16.00
2012,07,08,14,57,15.90
2012,07,08,14,58,15.90
2012,07,08,14,59,15.90
2012,07,08,15,00,15.90
2012,07,08,15,01,15.90
2012,07,08,15,02,15.90
2012,07,08,15,03,16.00
2012,07,08,15,04,16.10
2012,07,08,15,05,16.00
2012,07,08,15,06,16.00
2012,07,08,15,07,15.90
2012,07,08,15,08,15.80
2012,07,08,15,09,15.90
2012,07,08,15,10,15.90
2012,07,08,15,11,15.80
2012,07,08,15,12,15.80
2012,07,08,15,13,15.80
2012,07,08,15,14,15.80
2012,07,08,15,15,15.70
2012,07,08,15,16,15.70
2012,07,08,15,17,15.80
2012,07,08,15,18,15.90
2012,07,08,15,19,15.90
2012,07,08,15,20,16.00
2012,07,08,15,21,16.10
2012,07,08,15,22,16.10
2012,07,08,15,23,16.00
2012,07,08,15,24,16.00
2012,07,08,15,25,15.90
2012,07,08,15,26,15.90
2012,07,08,15,27,15.90
2012,07,08,15,28,16.00
2012,07,08,15,29,16.10
2012,07,08,15,30,16.10
2012,07,08,15,31,16.10
2012,07,08,15,32,16.20
2012,07,08,15,33,16.20
2012,07,08,15,34,16.20
2012,07,08,15,35,16.10
2012,07,08,15,36,16.10
2012,07,08,15,37,16.10
2012,07,08,15,38,16.10
2012,07,08,15,39,16.20
2012,07,08,15,40,16.20
2012,07,08,15,41,16.30
2012,07,08,15,42,16.30
2012,07,08,15,43,16.20
2012,07,08,15,44,16.10
2012,07,08,15,45,16.10
2012,07,08,15,46,16.10
2012,07,08,15,47,16.20
2012,07,08,15,48,16.20
2012,07,08,15,49,16.00
2012,07,08,15,50,15.90
2012,07,08,15,51,15.90
2012,07,08,15,52,15.90
2012,07,08,15,53,15.90
2012,07,08,15,54,15.90
2012,07,08,15,55,15.90
2012,07,08,15,56,15.90
2012,07,08,15,57,15.90
2012,07,08,15,58,15.90
2012,07,08,15,59,15.80
2012,07,08,16,00,15.80
2012,07,08,16,01,15.80
2012,07,08,16,02,15.70
2012,07,08,16,03,15.70
2012,07,08,16,04,15.60
2012,07,08,16,05,15.60
2012,07,08,16,06,15.60
2012,07,08,16,07,15.60
2012,07,08,16,08,15.60
2012,07,08,16,09,15.60
2012,07,08,16,10,15.70
2012,07,08,16,11,15.80
2012,07,08,16,12,15.80
2012,07,08,16,13,15.90
2012,07,08,16,14,16.00
2012,07,08,16,15,16.00
2012,07,08,16,16,16.00
2012,07,08,16,17,15.90
2012,07,08,16,18,15.90
2012,07,08,16,19,15.90
2012,07,08,16,20,15.80
2012,07,08,16,21,15.80
2012,07,08,16,22,15.80
2012,07,08,16,23,15.80
2012,07,08,16,24,15.70
2012,07,08,16,25,15.70
2012,07,08,16,26,15.70
2012,07,08,16,27,15.80
2012,07,08,16,28,15.80
2012,07,08,16,29,15.80
2012,07,08,16,30,15.70
2012,07,08,16,31,15.60
2012,07,08,16,32,15.60
2012,07,08,16,33,15.60
2012,07,08,16,34,15.60
2012,07,08,16,35,15.70
2012,07,08,16,36,15.70
2012,07,08,16,37,15.70
2012,07,08,16,38,15.70
2012,07,08,16,39,15.70
2012,07,08,16,40,15.70
2012,07,08,16,41,15.70
2012,07,08,16,42,15.60
2012,07,08,16,43,15.60
2012,07,08,16,44,15.60
2012,07,08,16,45,15.50
2012,07,08,16,46,15.50
2012,07,08,16,47,15.50
2012,07,08,16,48,15.50
2012,07,08,16,49,15.50
2012,07,08,16,50,15.50
2012,07,08,16,51,15.40
2012,07,08,16,52,15.40
2012,07,08,16,53,15.40
2012,07,08,16,54,15.50
2012,07,08,16,55,15.50
2012,07,08,16,56,15.60
2012,07,08,16,57,15.60
2012,07,08,16,58,15.60
2012,07,08,16,59,15.60
2012,07,08,17,00,15.60
2012,07,08,17,01,15.60
2012,07,08,17,02,15.60
2012,07,08,17,03,15.60
2012,07,08,17,04,15.60
2012,07,08,17,05,15.70
2012,07,08,17,06,15.80
2012,07,08,17,07,15.90
2012,07,08,17,08,16.00
2012,07,08,17,09,16.00
2012,07,08,17,10,16.10
2012,07,08,17,11,16.10
2012,07,08,17,12,16.10
2012,07,08,17,13,16.10
2012,07,08,17,14,16.10
2012,07,08,17,15,16.10
2012,07,08,17,16,16.10
2012,07,08,17,17,16.10
2012,07,08,17,18,16.20
2012,07,08,17,19,16.20
2012,07,08,17,20,16.20
2012,07,08,17,21,16.10
2012,07,08,17,22,16.10
2012,07,08,17,23,16.10
2012,07,08,17,24,16.10
2012,07,08,17,25,16.10